Sign-in with your pilot id or email, or register

ICAO: UHMM Name / Country: Sokol Airport / Russia
Latitude: 59.911 Longitude: 150.72
Total Arrivals:
Strict Standards: Non-static method AirportData::getarrflights() should not be called statically, assuming $this from incompatible context in /var/www/customers/vh-7192/web/home/phpvms/core/templates/airport_info.tpl on line 18
1
Total Departures:
Strict Standards: Non-static method AirportData::getdeptflights() should not be called statically, assuming $this from incompatible context in /var/www/customers/vh-7192/web/home/phpvms/core/templates/airport_info.tpl on line 21
0
Latest Arrival: MTA5PM (UHHH-UHMM) Tibor Berces Latest Departure: (-)
Metar: UHMM 171800Z 02004MPS 9999 -SHSN BKN021CB M19/M26 Q1004 RMK QFE738 R28/09003MPS
More info

Charts for UHMM


NOTAM


Warning: file_get_contents(http://api.vateud.net/notams/UHMM.json): failed to open stream: HTTP request failed! HTTP/1.1 404 Not Found in /var/www/customers/vh-7192/web/home/phpvms/core/common/NOTAMSData.class.php on line 18

Warning: Invalid argument supplied for foreach() in /var/www/customers/vh-7192/web/home/phpvms/core/common/NOTAMSData.class.php on line 22

Sokol Airport